Location: *
(42.3442°N, 9.2072°E)
Time: 16:09:26
(UTC+00:00)

Cosmos 1174 - Pass Details

Date: 16 August 2020
Orbit: 363 x 1155 km, 66.1° (Epoch: 23 September)

Event Time Altitude Azimuth Distance (km) Brightness Sun altitude
Exits shadow 02:50:56 10° 167° (SSE) 1,769 6.2 -17.1°
Maximum altitude 02:54:19 28° 108° (ESE) 1,167 5.8 -16.7°
Drops below altitude 10° 02:58:31 10° 50° (NE) 2,215 8.3 -16.0°
Sets 03:01:27 0° 40° (NE) 3,302 9.4 -15.6°
